User: anonymous   Login
Location: Unspecified
(0.0000°N, 0.0000°E)
Time: 03:18:45
(UTC+00:00)
Language:

JUGNU - Orbit

View from above orbital plane
View from above orbital plane
View from above satellite
View from above satellite

Ground track
Ground track

The orbit data is extracted from the following two-line orbital elements,

1 37839U 11058B   19015.53178424  .00000311  00000-0  24154-4 0  9990
2 37839  19.9595 189.6132 0019007  67.6086 329.9922 14.12639541375434
Epoch (UTC): 15 January 2019 12:45:46
Eccentricity: 0.0019007
inclination: 19.9595°
perigee height: 836 km
apogee height: 864 km
right ascension of ascending node: 189.6132°
argument of perigee: 67.6086°
revolutions per day: 14.12639541
mean anomaly at epoch: 329.9922°
orbit number at epoch: 37543

The dashed part of the orbit path shows where the satellite is in the earth's shadow,  

DLR